Date String (YYYY-MM-DD hh:mm:ss) UTC,Instrument flags,absolute air pressure of the measurement (hPa),sample flow rate (lpm),inlet stack bypass flow (lpm),air temperature of the measurement (°C),ambient temperature measured by the external sensor (°C),aerosol sample conditioner tube jacket temperature (°C),OPC LED temperature (°C),internal box temperature (°C),relative humidity of the measurement (%),span deviation,mass concentration of particles derived from Lorenz-Mie calculation of OPC scattering (μg/m³),mass concentration of particles derived from Lorenz-Mie calculation of OPC scattering (μg/m³),mass concentration of particles derived from Lorenz-Mie calculation of OPC scattering (μg/m³)
DateTimeUTC,F1_M11,P_M11,Q1_M11,Q2_M11,T1_M11,T2_M11,T3_M11,T4_M11,T5_M11,U1_M11,ZSPAN_M11,X2_M11,X0_M11,X1_M11
2023-10-03 21:00:00,SystemResetWarning,0826.5,5.01,000.00,028.3,026.9,000.0,036.8,030.0,12.3,0000.0,0001.64,0003.16,0001.25
2023-10-03 21:01:00,SystemResetWarning,0826.5,4.98,000.00,028.4,027.0,000.0,036.8,030.1,12.1,0000.0,0001.67,0003.24,0001.26
2023-10-03 21:02:00,SystemResetWarning,0826.5,5.00,000.00,028.4,027.0,000.0,036.8,030.1,12.0,0000.0,0001.70,0003.33,0001.26
2023-10-03 21:03:00,SystemResetWarning,0826.4,5.01,000.00,028.4,027.0,000.0,036.8,030.1,12.1,0000.0,0001.68,0003.32,0001.25
2023-10-03 21:04:00,SystemResetWarning,0826.4,5.01,000.00,028.4,027.1,000.0,036.9,030.1,12.3,0000.0,0001.65,0003.27,0001.23
2023-10-03 21:05:00,SystemResetWarning,0826.5,5.01,000.00,028.4,027.1,000.0,036.9,030.1,12.3,0000.0,0001.65,0003.15,0001.24
2023-10-03 21:06:00,SystemResetWarning,0826.5,4.99,000.00,028.5,027.2,000.0,036.9,030.1,12.4,0000.0,0001.65,0003.08,0001.26
2023-10-03 21:07:00,SystemResetWarning,0826.5,4.99,000.00,028.5,027.2,000.0,036.9,030.2,12.3,0000.0,0001.64,0003.68,0001.26
2023-10-03 21:08:00,SystemResetWarning,0826.6,5.00,000.00,028.5,027.2,000.0,036.9,030.2,12.1,0000.0,0001.65,0003.77,0001.26
2023-10-03 21:09:00,SystemResetWarning,0826.5,5.01,000.00,028.5,027.3,000.0,036.9,030.2,12.4,0000.0,0001.64,0003.59,0001.27
2023-10-03 21:10:00,SystemResetWarning,0826.6,5.00,000.00,028.5,027.3,000.0,036.9,030.2,12.2,0000.0,0001.65,0003.43,0001.29
2023-10-03 21:11:00,SystemResetWarning,0826.6,5.01,000.00,028.6,027.3,000.0,037.0,030.2,12.3,0000.0,0001.65,0003.59,0001.28
2023-10-03 21:12:00,SystemResetWarning,0826.6,5.00,000.00,028.6,027.3,000.0,037.0,030.2,12.4,0000.0,0001.65,0003.69,0001.29
2023-10-03 21:13:00,SystemResetWarning,0826.6,5.00,000.00,028.6,027.3,000.0,037.0,030.3,12.2,0000.0,0001.64,0003.64,0001.29
2023-10-03 21:14:00,SystemResetWarning,0826.6,5.00,000.00,028.6,027.4,000.0,037.0,030.3,12.4,0000.0,0001.66,0003.73,0001.30
2023-10-03 21:15:00,SystemResetWarning,0826.6,5.00,000.00,028.6,027.4,000.0,037.0,030.3,12.4,0000.0,0001.69,0003.85,0001.32
2023-10-03 21:16:00,SystemResetWarning,0826.6,5.00,000.00,028.7,027.4,000.0,037.0,030.3,12.5,0000.0,0001.70,0003.95,0001.31
2023-10-03 21:17:00,SystemResetWarning,0826.6,5.00,000.00,028.7,027.4,000.0,037.0,030.3,12.2,0000.0,0001.67,0003.94,0001.29
2023-10-03 21:18:00,SystemResetWarning,0826.6,5.00,000.00,028.7,027.4,000.0,037.1,030.3,12.4,0000.0,0001.67,0003.68,0001.28
2023-10-03 21:19:00,SystemResetWarning,0826.6,5.00,000.00,028.7,027.4,000.0,037.1,030.3,12.8,0000.0,0001.62,0003.39,0001.27
2023-10-03 21:20:00,SystemResetWarning,0826.6,5.00,000.00,028.7,027.4,000.0,037.1,030.3,13.0,0000.0,0001.60,0003.37,0001.25
2023-10-03 21:21:00,SystemResetWarning,0826.6,5.00,000.00,028.7,027.4,000.0,037.1,030.3,13.0,0000.0,0001.59,0003.44,0001.24
2023-10-03 21:22:00,SystemResetWarning,0826.6,5.00,000.00,028.7,027.4,000.0,037.1,030.3,12.9,0000.0,0001.56,0003.26,0001.23
2023-10-03 21:23:00,SystemResetWarning,0826.6,5.00,000.00,028.7,027.4,000.0,037.1,030.4,13.1,0000.0,0001.59,0004.62,0001.22
2023-10-03 21:24:00,SystemResetWarning,0826.6,5.00,000.00,028.8,027.4,000.0,037.2,030.4,13.2,0000.0,0001.58,0004.78,0001.22
2023-10-03 21:25:00,SystemResetWarning,0826.6,5.00,000.00,028.8,027.4,000.0,037.2,030.4,13.1,0000.0,0001.58,0005.10,0001.20
2023-10-03 21:26:00,SystemResetWarning,0826.6,4.99,000.00,028.7,025.9,000.0,037.1,030.3,13.1,0000.0,0001.57,0005.52,0001.17
2023-10-03 21:27:00,SystemResetWarning,0826.5,5.01,000.00,028.6,024.6,000.0,037.0,030.0,13.2,0000.0,0001.61,0006.96,0001.16
2023-10-03 21:28:00,SystemResetWarning,0826.5,5.00,000.00,028.5,024.5,000.0,037.0,029.9,13.3,0000.0,0001.67,0007.07,0001.16
2023-10-03 21:29:00,SystemResetWarning,0826.5,4.99,000.00,028.4,024.7,000.0,037.0,029.8,13.1,0000.0,0001.69,0006.73,0001.17
2023-10-03 21:30:00,SystemResetWarning,0826.6,5.00,000.00,028.4,025.1,000.0,036.9,029.8,12.9,0000.0,0001.76,0007.17,0001.18
2023-10-03 21:31:00,SystemResetWarning,0826.6,5.01,000.00,028.3,025.4,000.0,036.9,029.8,12.8,0000.0,0001.75,0007.34,0001.17
2023-10-03 21:32:00,SystemResetWarning,0826.6,5.00,000.00,028.3,025.7,000.0,036.9,029.8,12.5,0000.0,0001.75,0007.26,0001.17
2023-10-03 21:33:00,SystemResetWarning,0826.7,5.00,000.00,028.3,025.9,000.0,036.9,029.8,12.4,0000.0,0001.75,0007.23,0001.17
2023-10-03 21:34:00,SystemResetWarning,0826.6,5.00,000.00,028.3,026.1,000.0,036.9,029.9,12.5,0000.0,0001.70,0005.78,0001.17
2023-10-03 21:35:00,SystemResetWarning,0826.6,5.00,000.00,028.3,026.3,000.0,036.9,029.9,12.6,0000.0,0001.71,0005.67,0001.17
2023-10-03 21:36:00,SystemResetWarning,0826.6,5.00,000.00,028.3,026.4,000.0,036.9,029.9,12.7,0000.0,0001.71,0005.29,0001.18
2023-10-03 21:37:00,SystemResetWarning,0826.6,5.01,000.00,028.3,026.6,000.0,036.9,029.9,12.8,0000.0,0001.73,0005.06,0001.20
2023-10-03 21:38:00,SystemResetWarning,0826.6,5.00,000.00,028.3,026.7,000.0,036.9,029.9,13.0,0000.0,0001.68,0003.36,0001.21
2023-10-03 21:39:00,SystemResetWarning,0826.4,5.00,000.00,028.3,026.7,000.0,036.9,029.9,13.1,0000.0,0001.63,0003.11,0001.22
2023-10-03 21:40:00,SystemResetWarning,0826.5,5.00,000.00,028.3,026.8,000.0,036.9,030.0,12.8,0000.0,0001.60,0003.10,0001.21
2023-10-03 21:41:00,SystemResetWarning,0826.5,5.00,000.00,028.3,026.9,000.0,036.8,030.0,12.7,0000.0,0001.57,0002.85,0001.21
2023-10-03 21:42:00,SystemResetWarning,0826.6,5.00,000.00,028.4,026.9,000.0,036.9,030.0,12.9,0000.0,0001.57,0002.53,0001.22
2023-10-03 21:43:00,SystemResetWarning,0826.5,5.00,000.00,028.4,026.9,000.0,036.9,030.0,12.8,0000.0,0001.59,0002.60,0001.22
2023-10-03 21:44:00,SystemResetWarning,0826.6,4.99,000.00,028.4,027.0,000.0,036.9,030.0,12.7,0000.0,0001.63,0002.70,0001.22
2023-10-03 21:45:00,SystemResetWarning,0826.6,5.00,000.00,028.4,027.0,000.0,036.9,030.1,12.4,0000.0,0001.65,0002.82,0001.22
2023-10-03 21:46:00,SystemResetWarning,0826.5,5.00,000.00,028.4,027.0,000.0,036.9,030.1,12.4,0000.0,0001.67,0003.03,0001.23
2023-10-03 21:47:00,SystemResetWarning,0826.6,5.01,000.00,028.4,027.0,000.0,036.9,030.1,12.3,0000.0,0001.66,0003.15,0001.24
2023-10-03 21:48:00,SystemResetWarning,0826.7,5.01,000.00,028.5,027.1,000.0,036.9,030.1,11.9,0000.0,0001.67,0003.28,0001.23
2023-10-03 21:49:00,SystemResetWarning,0826.8,4.99,000.00,028.5,027.1,000.0,036.9,030.1,12.1,0000.0,0001.71,0003.56,0001.23
2023-10-03 21:50:00,SystemResetWarning,0826.7,4.99,000.00,028.5,027.1,000.0,036.9,030.1,12.3,0000.0,0001.76,0004.02,0001.24
2023-10-03 21:51:00,SystemResetWarning,0826.8,5.00,000.00,028.5,027.1,000.0,036.9,030.2,12.3,0000.0,0001.83,0004.31,0001.23
2023-10-03 21:52:00,SystemResetWarning,0826.6,5.01,000.00,028.5,027.2,000.0,036.9,030.2,12.3,0000.0,0001.80,0005.04,0001.23
2023-10-03 21:53:00,SystemResetWarning,0826.7,5.01,000.00,028.5,027.2,000.0,036.9,030.2,12.2,0000.0,0001.78,0005.57,0001.22
2023-10-03 21:54:00,SystemResetWarning,0826.6,4.99,000.00,028.6,027.2,000.0,036.9,030.2,12.3,0000.0,0001.84,0005.82,0001.22
2023-10-03 21:55:00,SystemResetWarning,0826.7,4.99,000.00,028.6,027.2,000.0,037.0,030.2,12.3,0000.0,0001.86,0006.06,0001.21
2023-10-03 21:56:00,SystemResetWarning,0826.7,4.99,000.00,028.6,027.2,000.0,037.0,030.2,12.3,0000.0,0001.88,0006.18,0001.20
2023-10-03 21:57:00,SystemResetWarning,0826.7,5.00,000.00,028.6,027.2,000.0,037.0,030.2,12.2,0000.0,0001.94,0006.33,0001.19
2023-10-03 21:58:00,SystemResetWarning,0826.8,5.00,000.00,028.6,027.2,000.0,037.0,030.2,12.2,0000.0,0001.96,0006.34,0001.18
2023-10-03 21:59:00,SystemResetWarning,0826.8,5.01,000.00,028.6,027.2,000.0,037.0,030.2,12.3,0000.0,0001.94,0006.12,0001.17
